EHI
0 0 0 0 0 0 0 0 0 0 0 0 0 0 0 0 0 0 0 0 0 0 0 0 0 0 0 0 0 0 0 0 0 0 0 0 0 0
0 0 0 0 0 0 0 0 0 0 0 0 0 0 0 0 0 0 0 0 0 0 0 0 0 0 0 0 0 0 0 0 0 0 0 0 0 0
0 0 0 0 0 0 0 0 0 0 0 0 0 0 0 0 0 0 0 0 0 0 0 0 0 0 0 0 0 0 0 0 0 0 0 0 0 0
0 0 0 0 0 0 0 0 0 0 0 0 0 0 0 0 0 0 0 0 0 0 0 0 0 0 0 0 0 0 0 0 0 0 0 0 0 0
0 0 0 0 0 0 0 0 0 0 0 0 0 0 0 0 0 0 0 0 0 0 0 0 0 0 0 0 0 0 0 0 0 0 0 0 0 0
0 0 0 0 0 0 0 0 0 0 0 0 0 0 0 0 0 0 0 0 0 0 0 0 0 0 0 0 0 0 0 0 0 0 0 0 0 0
0 0 0 0 0 0 0 0 0 0 0 0 0 0 0 0 0 0 0 0 0 0 0 0 0 0 0 0 0 0 0 0 0 0 0 0 0 0
0 0 0 0 0 0 0 0 0 0 0 0 0 0 0 0 0 0 0 0 0 0 0 0 0 0 0 0 0 0 0 0 0 0 0 0 0 0
0 0 0 0 0 0 0 0 0 0 0 0 0 0 0 0 0 0 0 0 0 0 0 0 0 0 0 0 0 0 0 0 0 0 0 0 0 0
0 0 0 0 0 0 0 0 0 0 0 0 0 0 0 0 0 0 0 0 0 0 0 0 0 0 0 0 0 0 0 0 0 0 0 0 0 0
0 0 0 0 0 0 0 0 0 0 0 0 0 0 0 0 0 0 0 0 0 0 0 0 0 0 0 0 0 0 0 0 0 0 0 0 0 0
0 0 0 0 0 0 0 0 0 0 0 0 0 0 0 0 0 0 0 0 0 0 0 0 0 0 0 0 0 0 0 0 0 0 0 0 0 0
0 0 0 0 0 0 0 0 0 0 0 0 0 0 0 0 0 0 0 0 0 0 0 0 0 0 0 0 0 0 0 0 0 0 0 0 0 0
0 0 0 0 0 0 0 0 0 0 0 0 0 0 0 0 0 0 0 0 0 0 0 0 0 0 0 0 0 0 0 0 0 0 0 0 0 0
0 0 0 0 0 0 0 0 0 0 0 0 0 0 0 0 0 0 0 0 0 0 0 0 0 0 0 0 0 0 0 0 0 0 0 0 0 0
0 0 0 0 0 0 0 0 0 0 0 0 0 0 0 0 0 0 0 0 0 0 0 0 0 0 0 0 0 0 0 0 0 0 0 0 0 0
0 0 0 0 0 0 0 0 0 0 0 0 0 0 0 0 0 0 0 0 0 0 0 0 0 0 0 0 0 0 0 0 0 0 0 0 0 0
0 0 0 0 0 0 0 0 0 0 0 0 0 0 0 0 0 0 0 0 0 0 0 0 0 0 0 0 0 0 0 0 0 0 0 0 0 0
0 0 0 0 0 0 0 0 0 0 0 0 0 0 0 0 0 0 0 0 0 0 0 0 0 0 0 0 0 0 0 0 0 0 0 0 0 0
0 0 0 0 0 0 0 0 0 0 0 0 0 0 0 0 0 0 0 0 0 0 0 0 0 0 0 0 0 0 0 0 0 0 0 0 0 0
0 0 0 0 0 0 0 0 0 0 0 0 0 0 0 0 0 0 0 0 0 0 0 0 0 0 0 0 0 0 0 0 0 0 0 0 0 0
0 0 0 0 0 0 0 0 0 0 0 0 0 0 0 0 0 0 0 0 0 0 0 0 0 0 0 0 0 0 0 0 0 0 0 0 0 0
0 0 0 0 0 0 0 0 0 0 0 0 0 0 0 0 0 0 0 0 0 0 0 0 0 0 0 0 0 0 0 0 0 0 0 0 0 0
Wind_Speed
4 4 3 3 2 2 2 3 3 4 5 3 2 2 2 2 4 3 3 6 7 7 8 7 7 7 7 6 5 5 5 5 5 5 6 7 7 8
4 4 4 3 3 2 3 3 3 4 5 3 3 2 3 3 5 3 4 7 7 8 8 7 7 7 7 7 5 5 5 5 5 6 7 8 8 8
4 5 5 4 4 3 3 3 3 3 5 4 3 3 3 3 3 3 3 4 4 8 8 8 7 7 7 7 6 5 5 5 6 7 8 8 9 9
6 6 6 4 5 4 4 5 4 4 4 5 4 3 4 4 3 3 4 4 4 7 8 8 8 7 8 8 6 5 5 5 6 6 7 8 9 10
6 7 6 6 6 5 5 5 5 4 4 4 5 4 3 3 3 4 4 4 4 5 7 7 8 8 8 9 7 5 5 6 6 6 6 7 8 9
6 6 7 7 7 6 6 6 5 5 4 4 4 4 3 4 3 3 4 3 4 4 5 6 7 8 9 10 8 6 6 6 7 7 7 7 8 8
6 6 7 8 9 8 6 5 5 5 4 4 4 4 4 4 4 3 4 3 4 3 3 4 4 4 5 8 9 7 7 7 7 8 8 8 8 8
6 6 6 7 9 10 11 10 8 7 7 6 6 6 6 5 4 4 4 4 4 3 3 4 3 4 5 5 8 9 8 8 8 8 8 8 8 8
7 6 5 6 7 6 8 10 9 11 11 8 7 7 6 5 5 5 6 6 6 3 3 5 3 5 5 6 9 9 9 8 8 8 8 8 9 9
7 7 7 6 6 6 6 6 6 7 8 7 7 7 6 6 7 6 6 5 4 4 3 5 4 5 5 5 9 10 9 9 9 9 9 8 8 9
7 7 7 7 10 10 7 6 6 6 8 9 10 9 10 10 7 4 4 4 5 4 3 3 3 4 5 5 6 9 9 8 9 9 9 9 9 8
5 7 10 10 11 11 7 6 7 6 5 5 6 6 5 6 8 6 5 5 4 4 3 2 2 2 4 4 4 4 5 7 9 9 9 9 9 5
5 5 6 11 12 12 10 7 9 6 4 4 4 3 3 3 4 4 4 5 5 5 3 2 3 3 4 5 4 4 4 4 4 6 8 9 10 7
6 5 6 11 11 11 9 9 9 7 3 4 4 4 3 3 3 3 4 4 4 5 5 4 4 4 4 5 5 3 4 4 4 5 4 7 8 10
6 9 10 11 10 8 9 10 7 4 4 4 4 4 3 3 3 3 3 3 3 4 4 5 4 4 4 5 5 4 4 4 5 4 4 5 5 5
5 8 10 10 8 7 7 5 4 4 4 4 4 3 2 2 3 3 3 2 3 3 4 4 5 5 5 6 6 6 4 4 4 4 5 5 5 5
4 3 3 4 4 4 4 4 4 4 4 4 4 4 3 3 3 3 3 2 3 4 4 3 3 4 6 6 6 6 5 5 5 5 4 5 6 6
6 4 5 5 5 5 5 5 5 5 5 4 4 4 4 4 4 3 3 4 4 4 4 3 3 3 3 5 7 7 5 5 4 5 5 5 7 6
5 4 5 5 5 5 5 5 5 5 5 5 5 5 5 4 4 4 4 4 4 5 4 3 3 3 4 6 5 6 5 4 4 5 5 6 7 7
4 4 5 5 5 5 5 5 5 5 5 5 5 5 5 5 5 5 5 5 5 5 4 4 4 5 6 6 6 6 7 6 5 6 5 5 6 9
4 4 4 4 5 5 5 5 5 5 5 5 5 5 5 5 5 5 5 7 6 5 5 5 5 6 4 3 5 5 5 7 8 6 5 5 6 6
3 4 4 4 4 5 5 5 5 5 5 5 5 5 5 5 6 6 6 5 5 5 5 4 3 3 3 5 6 7 6 6 7 10 11 10 7 7
3 4 4 4 4 4 4 5 6 5 5 5 5 5 5 5 5 5 6 6 5 5 4 4 3 3 4 5 6 6 7 7 5 5 6 9 12 15
Wind_Direction
224 225 235 242 237 238 230 213 215 243 252 241 246 248 255 280 302 295 289 295 299 299 299 297 306 303 304 284 286 285 286 290 291 290 287 288 289 288
225 220 229 234 234 232 226 232 235 234 250 241 239 257 263 280 290 292 282 292 292 294 292 293 292 298 294 282 269 275 281 281 286 290 292 290 288 288
229 226 232 230 230 227 224 226 234 235 250 267 261 260 253 259 283 281 279 269 271 282 285 283 281 290 290 287 266 268 277 282 285 285 287 288 290 290
225 226 233 231 233 227 223 228 232 233 239 258 266 260 258 247 252 264 279 276 267 277 278 278 278 281 285 288 269 267 275 283 288 288 288 288 288 288
223 223 227 226 232 232 226 229 232 237 238 240 254 257 264 252 253 272 275 273 272 271 272 273 275 280 280 286 272 267 269 274 277 279 284 289 291 290
230 229 226 226 229 230 231 230 229 229 234 236 243 246 250 247 239 254 271 268 272 283 274 276 275 281 278 283 274 265 261 264 268 272 277 282 286 291
230 233 234 236 237 235 233 226 221 224 228 235 238 244 239 233 235 243 263 273 274 270 270 268 269 269 271 271 265 255 254 258 262 266 269 275 282 289
230 236 240 242 245 245 246 241 231 221 220 230 239 234 236 236 235 245 252 266 269 249 253 269 265 273 272 252 252 253 253 257 259 263 269 273 277 282
226 229 237 241 244 242 246 249 250 250 239 232 232 235 233 230 230 242 247 252 257 248 254 264 258 265 273 264 257 254 255 258 260 264 266 269 275 279
227 225 229 235 236 237 235 239 245 250 252 248 240 240 239 228 225 232 242 260 275 257 236 254 252 260 271 264 252 247 250 255 261 264 265 268 273 280
230 228 227 230 237 238 232 236 246 254 259 257 257 254 253 252 239 224 229 243 264 261 229 239 260 275 270 262 247 243 247 254 261 265 267 270 275 279
231 230 234 235 236 237 227 225 238 244 243 253 257 260 254 248 246 228 217 230 249 260 236 229 253 278 280 261 233 223 233 250 259 261 266 271 273 269
230 231 232 238 240 241 240 233 239 241 232 231 238 243 248 248 236 228 223 221 232 251 248 248 257 254 257 277 262 232 222 233 237 246 260 267 268 269
230 231 231 236 241 243 244 244 247 248 228 223 230 233 236 244 242 233 236 240 241 252 246 244 252 250 255 269 268 243 221 227 234 240 239 257 262 269
233 233 235 237 240 243 246 247 244 237 219 222 230 233 233 236 241 236 243 249 263 263 252 255 253 252 250 258 264 254 256 243 233 231 238 242 243 245
239 238 240 243 241 238 238 243 235 223 218 221 226 231 226 226 236 231 238 242 260 275 272 266 258 246 252 258 255 254 244 239 232 237 247 251 250 246
229 231 230 225 226 225 224 226 224 219 225 219 218 221 225 230 240 230 230 240 246 257 272 279 278 272 261 256 255 248 247 245 238 240 247 258 258 249
234 226 227 224 223 221 220 221 220 218 217 217 216 218 222 225 236 234 226 230 242 249 256 259 274 294 295 274 243 244 246 246 243 242 240 250 260 252
239 229 227 222 222 222 220 220 223 221 214 215 217 216 218 222 228 231 227 230 241 246 246 239 238 246 264 276 274 245 246 248 245 249 243 248 257 259
230 229 227 223 222 223 221 221 221 217 214 216 216 216 214 218 225 230 226 226 237 246 250 240 233 234 238 257 274 274 258 247 243 249 257 263 261 266
236 234 234 229 226 224 222 220 217 216 215 214 215 215 214 214 224 230 230 239 243 241 244 249 250 268 268 269 269 270 263 257 254 251 253 261 268 266
242 240 239 233 227 223 220 217 217 217 214 215 217 216 216 216 222 229 229 231 236 241 249 257 256 261 248 247 258 269 278 279 276 277 272 260 248 246
245 243 243 234 226 222 218 215 216 220 216 214 217 218 217 220 224 228 228 230 232 238 242 249 255 256 253 248 255 263 270 275 277 285 283 281 277 272